Regional Weather Roundup
Issued by NWS Sterling, VA

Home | Current Version | Previous Version | Graphics & Text | Print | Product List | Glossary On
Versions: 1 2 3 4 5 6 7 8 9 10 11 12 13 14 15 16 17 18 19 20 21 22 23 24 25 26 27 28 29 30 31 32 33 34 35 36 37 38 39 40 41 42 43 44 45 46 47 48 49 50
000
ASUS41 KLWX 281210
RWRLWX

REGIONAL WEATHER ROUNDUP
NATIONAL WEATHER SERVICE BALTIMORE MD/WASHINGTON DC
800 AM EDT THU AUG 28 2014

Note: "FAIR" indicates few or no clouds below 12,000 feet
with no significant weather and/or obstructions to visibility.
 TC=TEMPERATURE CELSIUS

 * =Non NWS site. Station does not report precipitation (e.g. rain,
    snow, etc.), thunder, or fog.

DCZ001-MDZ009-015-VAZ040>042-051-053>054-281300-
WASHINGTON METRO
  /KDAA//-FT BELVOIR

CITY           SKY/WX    TMP DP  RH WIND       PRES   REMARKS
WASHINGTON NAT MOSUNNY   78  66  66 NW13      29.98R
DULLES         MOSUNNY   71  64  78 NW5       30.00R
ANDREWS AFB    SUNNY     75  67  78 N9        29.97R
QUANTICO       MOSUNNY   76  67  73 N7        29.98R
LEESBURG*      SUNNY     72  68  88 N7        30.01R
MANASSAS*      SUNNY     73  70  88 N12       29.97S
GAITHERSBURG*  PTSUNNY   70  64  83 NW3       30.02R

$$

MDZ006>007-011-014-281300-
BALTIMORE METRO

CITY           SKY/WX    TMP DP  RH WIND       PRES   REMARKS
BWI AIRPORT    MOSUNNY   74  66  76 N9        29.96R
MD SCIENCE CTR   N/A     74  63  68 MISG      29.97R
MARTIN STATE   SUNNY     73  66  78 NW7       29.97R
ANNAPOLIS        N/A     75  66  73 N9        29.95
FORT MEADE*    SUNNY     72  66  83 CALM      29.98S

$$

MDZ012-015-019>023-281300-
MARYLAND EASTERN SHORE

CITY           SKY/WX    TMP DP  RH WIND       PRES   REMARKS
OCEAN CITY     SUNNY     75  69  81 N9        29.90R
SALISBURY      MOSUNNY   75  68  78 N12       29.92R
BAY BRIDGE AP*   N/A     73  64  73 N10G16    29.95R
CAMBRIDGE*     MOSUNNY   77  68  73 N9        29.93R
EASTON*        MOSUNNY   75  68  78 N9        29.98R

$$

MDZ017>025-281300-
SOUTHERN MARYLAND

CITY           SKY/WX    TMP DP  RH WIND       PRES   REMARKS
PATUXENT RIVER MOSUNNY   76  68  76 NW10      29.94R
ST INIGOES     MOSUNNY   77  67  71 VRB3      29.93R
LEONARDTOWN*   MOSUNNY   73  64  73 NW3       29.97R

$$

MDZ003>005-281300-
NORTH CENTRAL MARYLAND

CITY           SKY/WX    TMP DP  RH WIND       PRES   REMARKS
FREDERICK*     MOSUNNY   72  66  83 N7        30.01R
HAGERSTOWN APT SUNNY     67  59  75 N7        30.02R
WESTMINSTER*   SUNNY     70  63  78 N5        30.00R

$$

MDZ501>502-281300-
WESTERN MARYLAND

CITY           SKY/WX    TMP DP  RH WIND       PRES   REMARKS
OAKLAND*       FOG       55 N/A N/A NW5       30.13R VSB<1/4
CUMBERLAND*    SUNNY     70  61  73 N3        30.09R

$$

VAZ025>031-281300-
SHENANDOAH VALLEY

CITY           SKY/WX    TMP DP  RH WIND       PRES   REMARKS
WINCHESTER*    SUNNY     70  61  73 CALM      30.03R
STAUNTON*      MOSUNNY   67  64  91 CALM      30.05R FOG

$$

WVZ021-048>050-054>055-281300-
EASTERN WEST VIRGINIA PANHANDLE

CITY           SKY/WX    TMP DP  RH WIND       PRES   REMARKS
MARTINSBURG    SUNNY     70  58  65 NW7       30.03R
PETERSBURG*    NOT AVBL

$$

VAZ036>039-050-281300-
CENTRAL FOOTHILLS

CITY           SKY/WX    TMP DP  RH WIND       PRES   REMARKS
CHARLOTTESVILL MOSUNNY   74  69  85 CALM      29.99R
ORANGE*        MOSUNNY   72  68  88 N3        30.00R

$$

VAZ055>057-281300-
NORTH AND CENTRAL PIEDMONT

CITY           SKY/WX    TMP DP  RH WIND       PRES   REMARKS
FREDERICKSBRG* MOSUNNY   76  68  76 N6        29.96R
STAFFORD*      SUNNY     75  72  90 N8        30.01R

$$

NCZ024-NYZ072-PAZ021-071-VAZ022-071-281300-
OTHER REGIONAL OBSERVATIONS

CITY           SKY/WX    TMP DP  RH WIND       PRES   REMARKS
NEW YORK CITY  SUNNY     69  54  58 NW5       29.93R
PHILADELPHIA   MOSUNNY   72  56  57 N16       29.93R
PITTSBURGH     MOSUNNY   61  56  83 N7        30.12R
ROANOKE        PTSUNNY   71  66  84 NW6       30.06R
RICHMOND       PTSUNNY   77  67  71 N12       29.96R
RALEIGH        PTSUNNY   69  63  81 W3        29.99S

$$

ANZ530>537-281300-
MARINE OBSERVATIONS

STATION/POSITION TIME  TEMP    WIND        PRES
                       AIR SEA DIR/SP/G
                 (UTC) (F)     (DEG/KT/KT) (MB)
THOMAS PT LIGHT  1200   74 78   10/ 13/ 14 1015.1R
BALT KEY BRIDGE  1200   79     350/ 12/ 15 1014.0R
COVE POINT       1200   75     350/ 18/ 19 1013.5S
LEWISETTA        1200   77 79  340/  8/ 14 1013.4R
SOLOMONS ISLAND  1200      80                N/A
PINEY POINT      1200          350/ 12/ 13   N/A

$$



USA.gov is the U.S. government's official web portal to all federal, state and local government web resources and services.